星链-32170 (STARLINK-32170)

导读 | 豆包AI

STARLINK-32170是美国SpaceX公司星链星座的一颗低轨通信卫星,属于Starlink v2.0 mini批次,于2024年8月20日发射入轨,运行在近地轨道,是星链全球卫星互联网组网的组成部分。该卫星依托星链星座的设计,采用激光互联技术,旨在为全球偏远地区及传统网络覆盖盲区提供高速低延迟宽带互联网接入服务,助力SpaceX持续推进星座组网,扩大全球覆盖范围。

基本信息
目录编号:
60591
目录名称:
STARLINK-32170
国际标识:
2024-150J
轨道中心:
EARTH
卫星名称:
星链-32170 (STARLINK-32170)
卫星全名:
星链-32170 (STARLINK-32170)
卫星状态:
在轨 (已飞行619 天)
发射日期:
2024-08-20 UTC
国别 :
美国 (US)
星等 :
--
轨道信息
数据来源 国际轨道数据
星历时间: 2026-04-30T11:14:45+0800
1天前
查看轨道信息
半长轴: 6853.328km
偏心率: 0.0001628
轨道倾角: 53.159°
近地点辐角 79.636°
升交点赤经 68.371°
平近点角 280.482°
近地点: 474.075km
远地点: 476.307km
周期: 94.105分钟
每日圈数: 15.302082
详细信息
卫星平台:
Starlink v2.0 mini
运营商:
太空探索技术公司
运营商所在国:
美国
制造商(研发单位):
太空探索技术公司
制造商所在国:
美国
使用方式:
暂无
卫星简介
星链(Starlink)计划是由太空探索技术公司(SpaceX)提出的一个巨型低轨卫星互联网星座项目,计划在2019年至2024年间在太空搭建由约1.2万颗卫星组成的“星链”网络,其中1584颗将部署在地球上空550千米处的近地轨道,并从2020年开始工作。该卫星仍在工作。
2D轨道图
3D轨道图
轨道高度分析图
轨道倾角分析图
轨道综合分析图
查看轨道综合分析图